Probability
0 0 0 0 0 0 0 0 0 0 0 0 0 0 0 0 0 0 0 0 0 0 0 0 0 0 0 0 0 0 0 1 2 2 1 0 0 0 0 0 0 0 0 0
0 0 0 0 0 0 0 0 0 0 0 0 0 0 0 0 0 0 0 0 0 0 0 0 0 0 0 0 0 0 0 0 1 1 1 0 0 0 0 0 0 0 0 0
0 0 0 0 0 0 0 0 0 0 0 0 0 0 0 0 0 0 0 0 0 0 0 0 0 0 0 0 0 0 0 0 0 1 1 1 1 0 0 0 0 0 0 0
0 0 0 0 0 0 0 0 0 0 0 0 0 0 0 0 0 0 0 0 0 0 0 0 0 0 0 0 0 0 0 0 0 1 1 2 2 1 0 0 0 0 0 0
0 0 0 0 0 0 0 0 0 0 0 0 0 0 0 0 0 0 0 0 0 0 0 0 0 0 0 0 0 0 0 0 0 0 1 1 1 1 0 0 0 0 0 0
0 0 0 0 0 0 0 0 0 0 0 0 0 0 0 0 0 0 0 0 0 0 0 0 0 0 0 0 0 0 0 0 0 0 0 0 0 0 0 0 0 0 0 0
0 0 0 0 0 0 0 0 0 0 0 0 0 0 0 0 0 0 0 0 0 0 0 0 0 0 0 0 0 0 0 0 0 0 0 0 0 0 0 0 0 0 0 0
0 0 0 0 0 0 0 0 0 0 0 0 0 0 0 0 0 0 0 0 0 0 0 0 0 0 0 0 0 0 0 0 0 0 0 0 0 0 0 0 0 0 0 0
0 0 0 0 0 0 0 0 0 0 0 0 0 0 0 0 0 0 0 0 0 0 0 0 0 0 0 0 0 0 0 0 0 0 0 0 0 0 0 0 0 0 0 0
0 0 0 0 0 0 0 0 0 0 0 0 0 0 0 0 0 0 0 0 0 0 0 0 0 0 0 0 0 0 0 0 0 0 0 0 0 0 0 0 0 0 0 0
0 0 0 0 0 0 0 0 0 0 0 0 0 0 0 0 0 0 0 0 0 0 0 0 0 0 0 0 0 0 0 0 0 0 0 0 0 0 0 0 0 0 0 0
0 0 0 0 0 0 0 0 0 0 0 0 0 0 0 0 0 0 0 0 0 0 0 0 0 0 0 0 0 0 0 0 0 0 0 0 0 0 0 0 0 0 0 0
0 0 0 0 0 0 0 0 0 0 0 0 0 0 0 0 0 0 0 0 0 0 0 0 0 0 0 0 0 0 0 0 0 0 0 0 0 0 0 0 0 0 0 0
0 0 0 0 0 0 0 0 0 0 0 0 0 0 0 0 0 0 0 0 0 0 0 0 0 0 0 0 0 0 0 0 0 0 0 0 0 0 0 0 0 0 0 0
0 0 0 0 0 0 0 0 0 0 0 0 0 0 0 0 0 0 0 0 0 0 0 0 0 0 0 0 0 0 0 0 0 0 0 0 0 0 0 0 0 0 0 0
0 0 0 0 0 0 0 0 0 0 0 0 0 0 0 0 0 0 0 0 0 0 0 0 0 0 0 0 0 0 0 0 0 0 0 0 0 0 0 0 0 0 0 0
0 0 0 0 0 0 0 0 0 0 0 0 0 0 0 0 0 0 0 0 0 0 0 0 0 0 0 0 0 0 0 0 0 0 0 0 0 0 0 0 0 0 0 0
0 0 0 0 0 0 0 0 0 0 0 0 0 0 0 0 0 0 0 0 0 0 0 0 0 0 0 0 0 0 0 0 0 0 0 0 0 0 0 0 0 0 0 0
0 0 0 0 0 0 0 0 0 0 0 0 0 0 0 0 0 0 0 0 0 0 0 0 0 0 0 0 0 0 0 0 0 0 0 0 0 0 0 0 0 0 0 0
0 0 0 0 0 0 0 0 0 0 0 0 0 0 0 0 0 0 0 0 0 0 0 0 0 0 0 0 0 0 0 0 0 0 0 0 0 0 0 0 0 0 0 0
0 0 0 0 0 0 0 0 0 0 0 0 0 0 0 0 0 0 0 0 0 0 0 0 0 0 0 0 0 0 0 0 0 0 0 0 0 0 0 0 0 0 0 0
0 0 0 0 0 0 0 0 0 0 0 0 0 0 0 0 0 0 0 0 0 0 0 0 0 0 0 0 0 0 0 0 0 0 0 0 0 0 0 0 0 0 0 0
0 0 0 0 0 0 0 0 0 0 0 0 0 0 0 0 0 0 0 0 0 0 0 0 0 0 0 0 0 0 0 0 0 0 0 0 0 0 0 0 0 0 0 0
0 0 0 0 0 0 0 0 0 0 0 0 0 0 0 0 0 0 0 0 0 0 0 0 0 0 0 0 0 0 0 0 0 0 0 0 0 0 0 0 0 0 0 0
0 0 0 0 0 0 0 0 0 0 0 0 0 0 0 0 0 0 0 0 0 0 0 0 0 0 0 0 0 0 0 0 0 0 0 0 0 0 0 0 0 0 0 0
0 0 0 0 0 0 0 0 0 0 0 0 0 0 0 0 0 0 0 0 0 0 0 0 0 0 0 0 0 0 0 0 0 0 0 0 0 0 0 0 0 0 0 0
Wind_Speed
6 6 9 11 8 4 7 7 7 5 4 7 8 7 7 5 3 5 5 5 4 3 1 2 3 4 5 5 5 4 2 1 1 1 1 2 3 3 3 3 4 5 5 6
4 7 7 6 6 4 6 7 5 3 3 6 6 9 7 7 6 6 7 7 6 4 3 3 4 5 6 5 5 5 5 3 2 0 1 1 2 2 3 2 3 4 4 5
5 4 7 8 7 5 5 8 8 5 2 1 3 5 8 8 5 5 5 6 6 8 7 5 5 5 5 6 5 4 4 3 3 2 1 1 1 1 1 2 2 3 4 5
2 2 6 8 8 6 5 5 8 7 6 3 5 5 8 8 8 8 8 6 6 6 7 6 6 5 5 4 4 4 4 4 3 3 2 2 1 1 2 2 2 4 4 4
2 3 7 8 7 6 3 2 5 6 5 2 2 3 8 4 10 12 9 8 7 7 8 7 6 5 4 4 4 4 5 5 5 4 3 2 1 1 2 2 3 3 3 3
2 1 1 3 3 4 4 7 7 5 3 4 6 5 9 7 11 8 8 8 8 8 7 6 5 5 4 4 4 4 5 5 5 5 5 3 2 2 2 3 3 3 3 3
2 1 1 1 5 2 5 7 4 2 3 7 5 6 11 8 8 9 11 10 9 8 7 7 6 5 4 4 4 4 4 4 5 5 5 4 3 2 2 2 2 3 3 3
4 4 2 1 4 6 5 6 7 7 7 4 4 9 9 7 6 7 10 10 9 8 7 7 6 5 4 4 4 4 4 4 5 5 4 4 4 2 2 3 2 2 2 3
5 4 2 1 2 4 6 4 4 4 2 2 6 7 7 2 3 7 10 10 9 8 7 7 6 5 5 4 3 3 4 4 4 4 4 5 5 4 4 4 4 3 4 4
4 6 3 2 3 2 2 5 4 4 5 4 5 5 6 5 6 8 10 10 8 7 7 6 5 5 4 4 4 4 4 4 3 4 4 4 5 5 5 5 6 6 6 6
4 6 4 3 5 7 4 4 4 4 4 5 4 7 6 10 11 11 10 8 8 8 7 6 5 5 5 4 4 4 4 4 4 4 4 5 5 5 6 6 6 6 6 7
4 5 4 1 1 3 4 5 6 5 5 4 3 8 5 7 8 8 8 7 7 7 7 6 6 5 4 4 4 4 3 4 4 4 5 5 5 5 6 6 6 6 7 7
5 6 5 1 1 2 3 5 5 4 3 4 4 8 5 2 6 7 8 7 7 7 7 6 5 5 5 4 4 4 3 4 4 4 5 5 5 6 6 6 6 7 7 7
5 4 5 9 6 7 5 6 7 6 5 5 7 6 3 3 6 7 8 8 8 7 7 6 6 5 5 5 4 4 3 3 4 4 5 5 5 5 5 6 6 7 7 7
4 3 2 2 2 5 6 7 9 9 8 8 7 7 7 8 9 9 8 8 7 7 7 7 7 6 5 5 4 4 3 3 4 4 4 4 4 5 5 6 7 7 7 7
3 2 1 1 2 3 4 8 10 10 9 9 6 7 6 5 5 6 7 8 8 8 8 8 7 7 6 6 5 4 4 4 4 4 4 4 4 5 6 6 6 7 7 7
2 4 2 2 2 2 7 11 13 8 7 9 12 10 3 4 7 9 9 9 9 8 8 8 8 7 7 6 6 5 5 4 5 4 4 4 5 5 5 6 6 6 6 6
5 4 3 2 1 7 9 4 7 9 9 9 7 6 8 8 6 5 6 8 8 7 8 8 7 6 6 5 5 5 5 5 5 5 4 4 5 5 5 6 5 5 4 5
4 5 3 2 3 7 8 4 5 6 7 9 11 7 6 5 3 1 2 4 6 6 6 6 6 6 6 6 6 7 6 5 5 5 4 5 5 5 5 5 4 4 4 4
3 4 3 3 3 6 5 2 2 3 5 4 8 9 7 7 4 5 4 4 5 5 6 6 6 6 6 6 7 7 6 6 5 5 5 5 5 5 5 5 4 3 3 3
3 2 4 4 4 7 6 2 4 3 6 3 4 6 7 7 5 3 6 5 5 5 6 6 7 6 6 6 7 7 6 6 5 5 5 5 5 5 5 4 3 3 3 3
7 5 5 5 5 9 3 4 5 6 1 1 2 3 5 4 4 5 5 5 6 5 5 6 6 5 5 6 7 7 6 5 6 6 5 5 5 4 4 4 3 3 3 3
7 8 6 7 8 5 3 5 4 3 3 2 2 3 5 5 4 4 4 5 6 6 6 5 6 6 5 6 7 8 6 7 6 6 6 5 4 4 4 4 4 3 3 3
4 3 3 4 6 5 4 3 2 3 3 3 3 3 4 4 4 4 4 5 6 6 6 6 7 7 6 6 7 7 7 7 7 7 6 5 5 4 4 3 3 3 3 3
4 3 3 5 5 2 3 4 4 3 3 4 3 3 3 4 3 4 4 5 6 6 6 7 7 8 8 7 7 7 8 8 7 6 6 5 5 5 4 3 3 4 3 5
5 6 5 6 6 4 5 3 4 5 4 4 4 2 2 2 3 3 4 4 5 6 7 7 8 8 7 8 8 8 9 9 8 6 6 5 4 4 4 3 2 4 4 5
Wind_Direction
165 172 192 194 190 167 146 147 171 197 192 168 197 223 242 263 245 224 217 207 200 193 182 82 81 85 83 64 67 61 67 28 106 138 193 220 237 245 244 239 233 225 222 219
136 202 193 167 174 155 153 157 174 200 204 178 206 233 241 244 234 222 212 206 192 171 142 97 75 66 72 71 62 56 49 42 48 106 192 213 234 246 249 261 261 250 242 235
166 177 166 171 181 173 180 180 181 180 125 132 157 262 249 250 238 233 220 201 182 173 161 136 104 87 78 68 60 55 40 40 39 36 51 30 26 349 328 296 286 277 268 256
137 170 163 174 185 171 196 203 181 159 141 203 171 237 263 232 235 227 215 193 174 159 145 139 127 108 92 78 60 47 37 38 31 36 61 80 112 255 275 289 291 300 293 281
140 151 162 178 186 167 185 166 148 153 142 139 178 205 274 232 227 225 209 193 176 161 150 145 137 123 104 82 61 43 40 37 30 37 48 66 55 276 298 319 325 323 321 314
80 36 117 166 149 151 123 81 64 59 92 215 207 190 265 228 218 212 195 182 170 159 148 137 125 114 95 72 59 49 47 36 26 33 36 45 35 359 351 346 338 328 322 329
78 46 23 123 121 115 130 118 114 142 196 237 198 200 247 245 227 199 181 171 165 157 146 139 131 118 105 85 66 54 55 38 24 30 29 27 23 21 9 341 333 335 336 337
148 158 170 116 151 164 173 149 160 174 196 247 204 224 251 273 252 181 158 154 154 154 151 148 144 133 121 105 83 68 63 47 32 31 25 23 24 26 14 1 352 348 341 337
151 139 124 113 98 138 150 169 162 130 152 207 245 266 299 359 112 137 144 149 157 159 156 151 144 136 130 117 100 89 80 62 41 32 33 33 25 26 21 15 17 12 2 358
128 124 137 122 93 29 136 141 118 134 163 223 258 248 237 214 185 166 161 160 161 157 153 151 148 144 136 125 107 91 88 77 52 40 38 46 32 31 31 36 35 29 21 20
119 123 134 151 190 179 160 158 157 159 180 182 234 261 225 204 192 178 173 168 164 164 164 161 155 147 134 120 110 99 86 74 58 53 51 46 37 36 39 42 36 30 29 29
137 115 126 182 280 186 186 181 162 170 212 193 200 266 284 222 188 169 169 172 171 168 165 160 154 145 136 128 117 105 91 79 68 66 61 53 46 45 45 42 36 36 38 36
135 118 116 107 301 217 213 205 190 158 142 172 189 263 325 125 155 164 166 169 167 164 161 157 155 154 149 141 129 114 99 89 80 78 70 59 51 51 49 44 42 43 44 42
117 127 165 185 202 178 196 206 185 164 186 205 218 248 288 174 166 173 174 174 173 174 171 168 168 164 156 146 137 126 111 101 97 89 80 70 62 61 58 54 51 49 48 48
98 133 191 220 182 161 191 199 196 199 198 196 221 221 229 206 189 185 181 176 175 182 183 181 175 168 158 148 142 133 120 107 105 99 90 82 77 74 68 63 58 54 53 53
97 131 110 317 238 204 228 220 211 216 213 219 231 246 238 216 187 181 182 180 187 195 193 184 173 167 166 162 155 144 132 123 115 109 104 97 88 81 77 72 66 62 57 54
144 138 133 264 304 26 264 228 213 212 208 196 220 231 208 190 190 191 190 191 196 198 190 181 176 172 168 166 157 152 144 132 123 117 111 104 97 90 84 82 76 69 61 57
149 138 144 172 116 240 246 237 204 216 229 210 216 211 202 207 205 197 191 191 196 190 181 175 165 160 157 153 148 141 139 136 130 125 123 119 110 103 96 91 85 78 71 66
152 148 153 167 229 275 284 249 186 193 249 221 215 211 200 186 137 243 219 191 188 178 165 160 156 152 149 151 148 141 141 139 138 139 137 133 127 121 114 107 100 94 88 75
118 126 149 180 220 251 263 276 170 129 269 250 205 199 182 153 175 233 188 150 139 135 136 139 139 138 148 154 147 144 148 151 154 151 144 138 134 130 128 126 121 113 105 99
149 156 184 198 238 266 260 226 112 169 253 295 180 178 171 180 194 176 142 138 137 135 138 140 142 150 159 155 148 151 156 164 157 147 140 138 136 136 136 133 131 130 121 110
174 185 195 184 217 254 250 144 182 221 240 81 114 133 144 144 127 130 142 145 145 143 146 148 149 155 158 156 154 159 168 160 149 145 142 141 143 147 144 143 145 144 140 130
194 193 189 196 218 243 214 203 220 174 162 156 127 124 131 136 151 156 163 165 166 164 162 158 158 160 164 167 166 171 171 158 152 149 153 153 151 149 152 158 158 153 155 157
250 195 188 240 258 253 239 223 196 172 166 150 138 136 138 148 160 170 175 178 178 177 175 167 165 174 182 183 181 176 166 164 160 162 163 162 158 156 156 159 163 163 172 175
236 190 204 243 266 279 258 221 199 166 138 127 120 132 148 152 169 183 190 193 191 187 181 178 183 189 191 185 185 177 170 168 168 168 168 167 168 162 162 166 181 181 198 191
211 193 193 227 228 210 235 223 183 166 166 159 146 135 126 151 181 191 204 202 196 192 185 187 192 193 191 187 188 183 178 174 170 172 176 175 170 169 167 164 172 208 203 206